[[{"header":{"parameterUnit":"m.s-1","parameterCategory":2,"la1":30.2991,"la2":30.254,"lo1":-89.0895,"lo2":-89.0444,"dy":0.0017,"dx":0.0017,"nx":28,"ny":28,"refTime":"2024-07-17T21:00:00:Z","depth":"0","parameterNumber":2,"parameterNumberName":"U-component_of_CURRENTS"},"data":[0,0,0,0,0,0,0,0,0,0,0,0,0,0,0,0,0,0,0,0,0,0,0,0,0,0,0,0,0,0,0,0,0,0,0,0,0,0,0,0,0,0,0,0,0,0,0,0,0,0,0,0,0,0,0,0,0,0,-0.1906,-0.1907,0,-0.1961,-0.1962,-0.1962,-0.1954,-0.1953,-0.1952,-0.1952,-0.1858,-0.1856,-0.1854,0,0,0,0,0,0,0,0,0,0,0,0,0,-0.1764,-0.1767,-0.1906,-0.1907,-0.1908,-0.1961,-0.1962,-0.1962,-0.1954,-0.1953,-0.1952,-0.1952,-0.1859,-0.1856,-0.1854,0,0,0,0,0,0,0,0,0,0,0,0,0,-0.1819,-0.1768,-0.1906,-0.1914,-0.1915,-0.1961,-0.1962,-0.1962,-0.1954,-0.1953,-0.1952,-0.1951,-0.186,-0.1857,-0.1854,-0.1851,0,0,-0.1844,-0.1843,0,0,0,0,0,0,0,0,-0.1816,-0.1824,-0.1911,-0.1913,-0.1915,-0.1954,-0.1878,-0.1919,-0.1954,-0.1934,-0.1952,-0.1951,-0.188,-0.1875,-0.1883,-0.1846,-0.1842,-0.1844,-0.1842,-0.1841,-0.184,0,0,0,0,0,0,0,-0.1812,-0.1821,-0.1923,-0.1913,-0.1915,-0.1905,-0.1912,-0.1886,-0.1904,-0.1936,-0.1937,-0.195,-0.1879,-0.1886,-0.188,-0.1841,-0.1844,-0.1842,-0.184,-0.1839,-0.1819,-0.1821,0,0,0,0,0,0,-0.1818,-0.1818,-0.1921,-0.1925,-0.1868,-0.1909,-0.1916,-0.1938,-0.1908,-0.1905,-0.1951,-0.195,-0.1892,-0.1884,-0.1877,-0.1889,-0.1841,-0.1838,-0.1836,-0.1818,-0.182,-0.1821,0,0,0,0,0,0,-0.1815,-0.1827,-0.1919,-0.1876,-0.1887,-0.1913,-0.1938,-0.194,-0.1949,-0.1922,-0.1915,-0.1959,-0.1891,-0.1881,-0.1865,-0.1884,-0.1837,-0.1834,-0.1817,-0.1819,-0.182,-0.1902,0,0,0,0,0,0,-0.181,-0.1825,-0.1838,-0.1877,-0.189,-0.1952,-0.1939,-0.1942,-0.1961,-0.196,-0.1926,-0.1917,-0.1889,-0.187,-0.1862,-0.1879,-0.1832,-0.1815,-0.1818,-0.182,-0.1898,-0.1906,-0.1914,0,0,0,0,0,-0.1805,-0.1823,-0.1838,-0.1851,-0.1909,-0.1954,-0.1959,-0.1971,-0.1963,-0.1974,-0.1953,-0.1918,-0.188,-0.1869,-0.1859,-0.1876,-0.1814,-0.1817,-0.182,-0.1894,-0.1905,-0.1914,0,0,0,0,0,0,-0.1766,-0.1826,-0.1842,-0.1878,-0.1918,-0.1954,-0.196,-0.1976,-0.1973,-0.196,-0.193,-0.192,-0.1914,-0.1886,-0.1874,-0.188,-0.1843,-0.1844,-0.1903,-0.1912,-0.192,-0.1887,-0.1829,0,0,0,0,0,-0.1768,-0.1792,-0.1853,-0.1878,-0.1898,-0.1931,-0.1948,-0.1964,-0.1973,-0.1971,-0.1953,-0.1931,-0.1921,-0.1909,-0.1889,-0.1888,-0.1786,-0.1895,-0.1903,-0.191,-0.1878,-0.1721,-0.171,-0.1831,-0.1831,-0.1831,0,0,-0.1754,-0.1793,-0.1805,-0.1871,-0.1894,-0.1931,-0.1938,-0.1968,-0.1994,-0.1957,-0.1966,-0.1954,-0.1927,-0.1931,-0.1926,-0.1908,-0.1834,-0.1914,-0.192,-0.1883,-0.1722,-0.1709,-0.1698,-0.1833,-0.1832,-0.1832,0,0,-0.1733,-0.1781,-0.1789,-0.1836,-0.1889,-0.1923,-0.1936,-0.1982,-0.1994,-0.2015,-0.1998,-0.1988,-0.198,-0.1962,-0.1953,-0.1989,-0.1881,-0.2005,-0.2016,-0.1866,-0.1853,-0.184,-0.1736,-0.1713,-0.201,-0.201,-0.201,0,-0.1708,-0.1746,-0.1798,-0.1831,-0.1868,-0.1922,-0.1949,-0.1982,-0.2016,-0.2012,-0.2022,-0.1988,-0.1986,-0.1962,-0.2004,-0.2003,-0.1909,-0.1984,-0.1871,-0.1856,-0.1841,-0.1737,-0.171,-0.2015,-0.2014,-0.2014,-0.2013,0,-0.1706,-0.1741,-0.1752,-0.1816,-0.1866,-0.1899,-0.197,-0.1999,-0.2025,-0.2041,-0.2025,-0.2017,-0.198,-0.2013,-0.2032,-0.1957,-0.1924,-0.1895,-0.1836,-0.1833,-0.1725,-0.1696,-0.2021,-0.2019,-0.2018,-0.2017,0,0,-0.1633,-0.1725,-0.173,-0.1756,-0.1865,-0.1897,-0.1956,-0.2003,-0.1995,-0.2029,-0.1985,-0.2027,-0.1998,-0.1985,-0.1991,-0.1909,-0.1782,-0.1879,-0.1869,-0.1759,-0.1462,-0.1453,-0.1419,-0.1719,-0.1714,-0.1709,-0.1443,0,-0.1607,-0.1638,-0.1716,-0.1764,-0.179,-0.1885,-0.193,-0.1981,-0.2003,-0.1975,-0.1965,-0.1923,-0.1994,-0.1962,-0.1898,-0.1796,-0.1701,-0.1858,-0.1495,-0.1484,-0.146,-0.1383,-0.132,-0.1076,-0.1413,-0.1408,-0.1405,0,-0.1577,-0.1608,-0.1629,-0.1723,-0.1745,-0.1787,-0.1844,-0.1895,-0.1898,-0.1901,-0.1862,-0.1833,-0.1763,-0.1791,-0.1584,-0.1675,-0.1574,-0.1498,-0.1483,-0.141,-0.1417,-0.1126,-0.1008,-0.1081,-0.1358,-0.1362,-0.1365,0,-0.1467,-0.1554,-0.1557,-0.1595,-0.1704,-0.1728,-0.1793,-0.1843,-0.1845,-0.1813,-0.1755,-0.1688,-0.1595,-0.1465,-0.1388,-0.1442,-0.1122,-0.1153,-0.1043,-0.1042,-0.0881,-0.0875,-0.0762,-0.0942,-0.0943,-0.0944,-0.0944,0,-0.1404,-0.1414,-0.1497,-0.1499,-0.1514,-0.1639,-0.1635,-0.1692,-0.1696,-0.1641,-0.1677,-0.157,-0.1495,-0.1345,-0.1286,-0.1076,-0.1019,-0.0999,-0.0944,-0.0919,-0.092,-0.0891,-0.0956,-0.0934,-0.0936,-0.0938,-0.0939,0,-0.1274,-0.1326,-0.1335,-0.1425,-0.145,-0.1458,-0.1542,-0.1526,-0.1562,-0.147,-0.1439,-0.14,-0.1225,-0.1158,-0.0931,-0.0908,-0.0725,-0.0675,-0.0694,-0.0647,-0.0644,-0.0716,-0.0488,-0.0472,-0.0475,-0.0473,-0.0471,0,-0.1211,-0.1187,-0.124,-0.1231,-0.1265,-0.1303,-0.1318,-0.1424,-0.1402,-0.135,-0.1267,-0.112,-0.0996,-0.0726,-0.0639,-0.0475,-0.0574,-0.0358,-0.0455,-0.0596,-0.0633,-0.0714,-0.0725,-0.0283,-0.028,-0.0277,-0.0275,0,-0.1083,-0.1081,-0.1081,-0.1063,-0.1068,-0.1085,-0.1118,-0.1087,-0.1168,-0.1093,-0.0962,-0.0857,-0.0653,-0.0464,-0.0335,-0.0269,-0.04,-0.0299,-0.038,-0.0411,-0.0539,-0.0515,-0.0567,-0.0251,-0.0253,-0.0255,-0.0256,-0.0257,-0.0974,-0.0932,-0.0915,-0.0901,-0.0893,-0.0869,-0.084,-0.0859,-0.0807,-0.0699,-0.0675,-0.0479,-0.0345,-0.0146,-0.0143,-0.0127,-0.0173,-0.0132,-0.0186,-0.0241,-0.0288,-0.0335,-0.0017,-0.0018,-0.0019,-0.0019,-0.002,0,-0.0864,-0.082,-0.0771,-0.0743,-0.0688,-0.0739,-0.0702,-0.0653,-0.0555,-0.0449,-0.0325,-0.0081,0.0033,0.0045,0.0073,-0.0,-0.0063,-0.0071,-0.0165,-0.0162,-0.0107,-0.0171,0.0054,0.0054,0.0054,0.0054,0.0054,0.0054,-0.0794,-0.0715,-0.0692,-0.0571,-0.054,-0.0453,-0.0412,-0.033,-0.0242,-0.0025,0.014,0.0245,0.0286,0.0125,-0.0024,-0.0071,-0.017,-0.015,-0.0227,-0.0236,-0.0248,-0.0259,-0.0335,-0.0149,-0.0149,-0.0247,-0.0248,-0.0249]},{"header":{"parameterUnit":"m.s-1","parameterCategory":2,"la1":30.2991,"la2":30.254,"lo1":-89.0895,"lo2":-89.0444,"dy":0.0017,"dx":0.0017,"nx":28,"ny":28,"refTime":"2024-07-17T21:00:00:Z","depth":"0","parameterNumber":3,"parameterNumberName":"V-component_of_CURRENTS"},"data":[0,0,0,0,0,0,0,0,0,0,0,0,0,0,0,0,0,0,0,0,0,0,0,0,0,0,0,0,0,0,0,0,0,0,0,0,0,0,0,0,0,0,0,0,0,0,0,0,0,0,0,0,0,0,0,0,0,0,-0.0989,-0.0988,0,-0.0978,-0.0978,-0.0979,-0.0959,-0.0959,-0.0958,-0.0958,-0.0869,-0.0867,-0.0866,0,0,0,0,0,0,0,0,0,0,0,0,0,-0.0921,-0.0923,-0.0989,-0.0988,-0.0988,-0.0978,-0.0978,-0.0979,-0.0959,-0.0959,-0.0958,-0.0957,-0.087,-0.0868,-0.0865,0,0,0,0,0,0,0,0,0,0,0,0,0,-0.0937,-0.0924,-0.0989,-0.0975,-0.0974,-0.0978,-0.0979,-0.0979,-0.096,-0.0959,-0.0958,-0.0957,-0.087,-0.0868,-0.0865,-0.0866,0,0,-0.0857,-0.0856,0,0,0,0,0,0,0,0,-0.0937,-0.094,-0.0978,-0.0976,-0.0975,-0.0967,-0.0922,-0.0936,-0.096,-0.0968,-0.0958,-0.0957,-0.0894,-0.0889,-0.0894,-0.0862,-0.0859,-0.0857,-0.0855,-0.0854,-0.0853,0,0,0,0,0,0,0,-0.0936,-0.094,-0.0987,-0.0977,-0.0976,-0.0946,-0.0948,-0.0925,-0.0936,-0.0967,-0.0965,-0.096,-0.0892,-0.0897,-0.0891,-0.0857,-0.0857,-0.0854,-0.0853,-0.0852,-0.077,-0.0769,0,0,0,0,0,0,-0.0937,-0.094,-0.0987,-0.0987,-0.095,-0.0948,-0.095,-0.0972,-0.0938,-0.0932,-0.0961,-0.0959,-0.0902,-0.0894,-0.0888,-0.0841,-0.0854,-0.0851,-0.085,-0.077,-0.0769,-0.0769,0,0,0,0,0,0,-0.0936,-0.0943,-0.0988,-0.0959,-0.0962,-0.095,-0.0975,-0.0973,-0.0975,-0.0934,-0.0927,-0.0964,-0.0901,-0.0892,-0.0877,-0.0839,-0.085,-0.0848,-0.0771,-0.077,-0.0769,-0.0777,0,0,0,0,0,0,-0.0935,-0.0943,-0.0961,-0.096,-0.0964,-0.0993,-0.0975,-0.0973,-0.0972,-0.097,-0.0934,-0.0926,-0.0899,-0.0881,-0.0874,-0.0836,-0.0846,-0.0771,-0.077,-0.0769,-0.0778,-0.0777,-0.0776,0,0,0,0,0,-0.0933,-0.0967,-0.0963,-0.0968,-0.099,-0.0993,-0.0993,-0.0981,-0.0973,-0.0979,-0.096,-0.0927,-0.0867,-0.088,-0.0871,-0.0831,-0.0772,-0.0771,-0.0769,-0.0778,-0.0777,-0.0776,0,0,0,0,0,0,-0.0946,-0.0968,-0.0963,-0.1002,-0.0995,-0.0989,-0.0995,-0.0986,-0.0979,-0.0975,-0.0938,-0.0929,-0.0898,-0.0872,-0.0886,-0.0804,-0.0806,-0.0803,-0.0815,-0.0814,-0.0813,-0.0777,-0.0843,0,0,0,0,0,-0.0958,-0.0992,-0.099,-0.1018,-0.1018,-0.1006,-0.1006,-0.0998,-0.0989,-0.0985,-0.096,-0.0924,-0.0887,-0.0861,-0.0836,-0.0801,-0.075,-0.0763,-0.0763,-0.0762,-0.0727,-0.06,-0.0583,-0.0765,-0.0765,-0.0765,0,0,-0.0967,-0.0985,-0.1002,-0.1023,-0.1018,-0.1026,-0.1005,-0.101,-0.1007,-0.0975,-0.0968,-0.0933,-0.0883,-0.0844,-0.0823,-0.0814,-0.0702,-0.076,-0.076,-0.0724,-0.0596,-0.0578,-0.0562,-0.0764,-0.0764,-0.0764,0,0,-0.0996,-0.1021,-0.1048,-0.1052,-0.105,-0.1045,-0.1047,-0.104,-0.1026,-0.1023,-0.0981,-0.0915,-0.0899,-0.0819,-0.0785,-0.0761,-0.0713,-0.0763,-0.0711,-0.059,-0.0572,-0.0556,-0.0546,-0.0528,-0.0747,-0.0747,-0.0747,0,-0.1001,-0.1043,-0.1052,-0.1072,-0.1075,-0.1056,-0.1068,-0.1057,-0.1043,-0.0998,-0.1025,-0.0903,-0.0871,-0.0749,-0.0745,-0.075,-0.0718,-0.0722,-0.0585,-0.0568,-0.0551,-0.0543,-0.0523,-0.0748,-0.0748,-0.0747,-0.0747,0,-0.104,-0.1071,-0.1087,-0.1111,-0.1115,-0.1126,-0.1108,-0.1092,-0.1078,-0.103,-0.0932,-0.0879,-0.0778,-0.0764,-0.0755,-0.0605,-0.0641,-0.0611,-0.0584,-0.0532,-0.0529,-0.0509,-0.0748,-0.0748,-0.0748,-0.0748,0,0,-0.1052,-0.1104,-0.1108,-0.1114,-0.1136,-0.1134,-0.1127,-0.1074,-0.1003,-0.0977,-0.087,-0.0793,-0.0713,-0.0666,-0.0612,-0.0508,-0.0404,-0.0514,-0.0508,-0.0499,-0.0213,-0.0214,-0.0193,-0.0348,-0.0343,-0.0339,-0.0286,0,-0.1069,-0.1118,-0.1139,-0.1161,-0.1174,-0.1158,-0.1133,-0.1076,-0.1012,-0.0906,-0.0792,-0.0685,-0.069,-0.0618,-0.0513,-0.0432,-0.0338,-0.0426,-0.0266,-0.0263,-0.0261,-0.0162,-0.0087,-0.0027,-0.0266,-0.0263,-0.026,0,-0.1083,-0.1119,-0.1155,-0.1156,-0.1154,-0.1159,-0.1074,-0.1047,-0.0892,-0.0824,-0.0678,-0.0594,-0.0443,-0.045,-0.0261,-0.0324,-0.0256,-0.0201,-0.0197,-0.0161,-0.022,-0.01,0.0019,0.014,-0.0229,-0.0231,-0.0234,0,-0.1059,-0.1112,-0.1141,-0.1153,-0.1159,-0.1143,-0.1126,-0.1004,-0.0924,-0.0746,-0.0654,-0.0475,-0.0384,-0.0255,-0.0187,-0.0201,-0.0005,-0.0004,0.0058,0.0052,0.0173,0.0172,0.0453,0.0184,0.0183,0.0183,0.0183,0,-0.1057,-0.1068,-0.1132,-0.1142,-0.1129,-0.1131,-0.1048,-0.0982,-0.0836,-0.0707,-0.0595,-0.0471,-0.032,-0.0211,-0.0146,-0.0009,0.0031,0.0102,0.0112,0.0158,0.0156,0.031,0.0312,0.0185,0.0185,0.0184,0.0184,0,-0.1001,-0.1057,-0.1079,-0.1112,-0.112,-0.1102,-0.1043,-0.0952,-0.0835,-0.067,-0.0614,-0.0445,-0.0328,-0.0221,-0.0034,0.0045,0.0253,0.0216,0.0194,0.0204,0.0394,0.0388,0.0622,0.0718,0.0325,0.0326,0.0327,0,-0.0968,-0.0985,-0.1052,-0.107,-0.1089,-0.1073,-0.1039,-0.095,-0.0848,-0.0662,-0.0573,-0.0429,-0.033,-0.0119,0.0061,0.0197,0.0283,0.0376,0.0417,0.0462,0.0464,0.0438,0.05,0.0524,0.0526,0.0528,0.053,0,-0.0891,-0.0925,-0.0951,-0.1005,-0.1016,-0.1004,-0.0956,-0.0879,-0.0755,-0.0644,-0.0504,-0.0432,-0.0234,-0.0031,0.0157,0.0263,0.0481,0.0422,0.0545,0.0729,0.0654,0.0728,0.0328,0.0547,0.0545,0.0544,0.0543,0.0543,-0.0814,-0.0822,-0.0875,-0.0917,-0.0936,-0.0914,-0.0865,-0.0804,-0.0686,-0.0497,-0.0483,-0.0372,-0.0079,0.0196,0.0307,0.0676,0.06,0.081,0.081,0.0787,0.0891,0.0469,0.0658,0.0656,0.0656,0.0655,0.0654,0,-0.0716,-0.0745,-0.0779,-0.0829,-0.0829,-0.0862,-0.0781,-0.0706,-0.0591,-0.0481,-0.0389,-0.0149,0.0175,0.0461,0.095,0.1092,0.1128,0.1153,0.1192,0.125,0.0977,0.1002,0.1186,0.1186,0.1186,0.1186,0.1186,0.1186,-0.066,-0.0669,-0.0708,-0.0714,-0.0743,-0.0696,-0.0643,-0.0551,-0.0453,-0.0269,-0.0154,-0.0088,0.0365,0.0943,0.1404,0.1451,0.1567,0.15,0.1553,0.14,0.1369,0.134,0.1373,0.1632,0.1632,0.1882,0.1884,0.1885]}],[{"header":{"parameterUnit":"m.s-1","parameterCategory":2,"la1":30.2991,"la2":30.254,"lo1":-89.0895,"lo2":-89.0444,"dy":0.0017,"dx":0.0017,"nx":28,"ny":28,"refTime":"2024-07-17T21:00:00:Z","depth":"2","parameterNumber":2,"parameterNumberName":"U-component_of_CURRENTS"},"data":[0,0,0,0,0,0,0,0,0,0,0,0,0,0,0,0,0,0,0,0,0,0,0,0,0,0,0,0,0,0,0,0,0,0,0,0,0,0,0,0,0,0,0,0,0,0,0,0,0,0,0,0,0,0,0,0,0,0,-0.2199,-0.2199,0,-0.2253,-0.2254,-0.2255,-0.2301,-0.2301,-0.2301,-0.2301,-0.2421,-0.2424,-0.2427,0,0,0,0,0,0,0,0,0,0,0,0,0,-0.2086,-0.2089,-0.2199,-0.2199,-0.2199,-0.2252,-0.2254,-0.2255,-0.2301,-0.2301,-0.2301,-0.2301,-0.242,-0.2423,-0.2427,0,0,0,0,0,0,0,0,0,0,0,0,0,-0.2143,-0.2089,-0.2199,-0.2224,-0.2226,-0.2252,-0.2254,-0.2255,-0.2301,-0.2301,-0.2301,-0.2301,-0.2418,-0.2423,-0.2428,-0.2458,0,0,-0.2443,-0.2445,0,0,0,0,0,0,0,0,-0.2139,-0.2148,-0.222,-0.2222,-0.2225,-0.2265,-0.2257,-0.2324,-0.2301,-0.2279,-0.2301,-0.2301,-0.2371,-0.238,-0.2397,-0.2464,-0.2469,-0.2443,-0.2446,-0.2448,-0.2449,0,0,0,0,0,0,0,-0.2136,-0.2145,-0.2226,-0.222,-0.2223,-0.2215,-0.2224,-0.227,-0.233,-0.2281,-0.2283,-0.2279,-0.2373,-0.2392,-0.2401,-0.2471,-0.2443,-0.2447,-0.245,-0.2452,-0.2648,-0.265,0,0,0,0,0,0,-0.212,-0.2142,-0.2224,-0.2227,-0.2174,-0.2217,-0.2227,-0.2257,-0.2328,-0.2337,-0.2279,-0.2281,-0.2384,-0.2395,-0.2405,-0.2516,-0.2448,-0.2452,-0.2455,-0.2646,-0.2648,-0.2651,0,0,0,0,0,0,-0.2118,-0.2128,-0.2222,-0.2178,-0.2189,-0.2219,-0.2251,-0.2258,-0.2297,-0.2325,-0.2337,-0.2313,-0.2385,-0.2398,-0.2462,-0.2518,-0.2455,-0.2459,-0.2643,-0.2647,-0.265,-0.2694,0,0,0,0,0,0,-0.2115,-0.2128,-0.2137,-0.2179,-0.2191,-0.224,-0.2251,-0.2259,-0.2291,-0.2295,-0.2358,-0.2368,-0.2386,-0.2455,-0.2467,-0.2524,-0.2463,-0.264,-0.2645,-0.2649,-0.2689,-0.2698,-0.2706,0,0,0,0,0,-0.2112,-0.2145,-0.2138,-0.2146,-0.2206,-0.2239,-0.2246,-0.2269,-0.2293,-0.2307,-0.2357,-0.2367,-0.2492,-0.246,-0.2474,-0.2534,-0.2638,-0.2643,-0.2648,-0.2686,-0.2697,-0.2706,0,0,0,0,0,0,-0.2104,-0.2153,-0.2146,-0.2192,-0.2203,-0.2245,-0.2256,-0.2283,-0.2336,-0.234,-0.2389,-0.2403,-0.2499,-0.2501,-0.2466,-0.2604,-0.257,-0.2579,-0.2594,-0.2605,-0.2613,-0.2566,-0.2467,0,0,0,0,0,-0.21,-0.214,-0.2163,-0.2195,-0.2199,-0.223,-0.2246,-0.226,-0.2307,-0.2331,-0.2379,-0.2439,-0.2529,-0.255,-0.2616,-0.2669,-0.2592,-0.272,-0.2728,-0.2735,-0.2708,-0.2621,-0.2617,-0.2668,-0.2668,-0.2668,0,0,-0.2088,-0.2133,-0.2142,-0.2193,-0.2205,-0.223,-0.2243,-0.2266,-0.2302,-0.2336,-0.2409,-0.2482,-0.2558,-0.2639,-0.2679,-0.2642,-0.2683,-0.2742,-0.2747,-0.2716,-0.2626,-0.262,-0.2615,-0.2672,-0.2671,-0.267,0,0,-0.2099,-0.2137,-0.2159,-0.2183,-0.2203,-0.223,-0.2243,-0.2284,-0.2313,-0.2378,-0.2444,-0.2503,-0.2629,-0.2665,-0.2714,-0.2793,-0.2752,-0.2871,-0.2848,-0.2766,-0.2759,-0.2752,-0.2642,-0.2625,-0.2846,-0.2846,-0.2847,0,-0.2086,-0.214,-0.2164,-0.2197,-0.2223,-0.224,-0.2266,-0.23,-0.236,-0.2405,-0.24,-0.2578,-0.2623,-0.2729,-0.2775,-0.2805,-0.2761,-0.2806,-0.2769,-0.2761,-0.2753,-0.2642,-0.2622,-0.2849,-0.2849,-0.2849,-0.2848,0,-0.2099,-0.2151,-0.2173,-0.2231,-0.225,-0.2286,-0.2315,-0.2364,-0.241,-0.2449,-0.2552,-0.2583,-0.2677,-0.2729,-0.2788,-0.2811,-0.2799,-0.2807,-0.2728,-0.2749,-0.2633,-0.2611,-0.2853,-0.2852,-0.2851,-0.2851,0,0,-0.208,-0.2169,-0.218,-0.2228,-0.2282,-0.2317,-0.2374,-0.245,-0.2511,-0.2538,-0.2595,-0.2717,-0.2723,-0.2774,-0.2828,-0.2755,-0.2665,-0.2774,-0.2769,-0.2635,-0.2479,-0.2413,-0.2382,-0.269,-0.2687,-0.2685,-0.2417,0,-0.2094,-0.2192,-0.2214,-0.23,-0.2358,-0.24,-0.2453,-0.2514,-0.2573,-0.2625,-0.2635,-0.2702,-0.2745,-0.2779,-0.2728,-0.2728,-0.2615,-0.2735,-0.2504,-0.2495,-0.2409,-0.2356,-0.2242,-0.199,-0.2395,-0.2391,-0.2389,0,-0.2091,-0.2189,-0.2278,-0.2391,-0.2408,-0.2442,-0.2559,-0.2582,-0.265,-0.2685,-0.2718,-0.2749,-0.2727,-0.27,-0.2585,-0.2685,-0.2574,-0.2502,-0.249,-0.2388,-0.2388,-0.204,-0.1934,-0.2351,-0.2354,-0.2357,-0.236,0,-0.2105,-0.2227,-0.2325,-0.2365,-0.2479,-0.252,-0.2537,-0.2612,-0.2611,-0.2674,-0.2684,-0.2704,-0.2634,-0.2559,-0.2461,-0.2533,-0.2257,-0.2317,-0.2113,-0.2106,-0.1933,-0.1917,-0.2119,-0.2119,-0.212,-0.2121,-0.2121,0,-0.2137,-0.2213,-0.2348,-0.2411,-0.2471,-0.2524,-0.2526,-0.259,-0.2596,-0.2581,-0.2668,-0.2628,-0.259,-0.2476,-0.2413,-0.2189,-0.2194,-0.2067,-0.2021,-0.195,-0.1939,-0.2208,-0.2222,-0.211,-0.2113,-0.2115,-0.2116,0,-0.2117,-0.2212,-0.2346,-0.2489,-0.2471,-0.2509,-0.2421,-0.2426,-0.248,-0.2446,-0.2448,-0.2492,-0.2365,-0.2291,-0.2099,-0.2055,-0.189,-0.1776,-0.1687,-0.1638,-0.1808,-0.1828,-0.1551,-0.1546,-0.1542,-0.1539,-0.1536,0,-0.2116,-0.2203,-0.2346,-0.2347,-0.2388,-0.237,-0.2299,-0.2325,-0.2336,-0.2353,-0.2353,-0.2242,-0.2166,-0.1887,-0.1764,-0.1567,-0.1647,-0.1342,-0.1448,-0.176,-0.1744,-0.1771,-0.1796,-0.1223,-0.1218,-0.1213,-0.121,0,-0.2161,-0.2232,-0.2332,-0.2286,-0.2256,-0.2187,-0.2138,-0.2139,-0.2179,-0.2171,-0.2146,-0.2069,-0.1839,-0.161,-0.1378,-0.1266,-0.1409,-0.125,-0.1529,-0.1421,-0.1438,-0.1429,-0.1465,-0.1172,-0.1176,-0.1179,-0.1181,-0.1182,-0.218,-0.2227,-0.2295,-0.2227,-0.2156,-0.2056,-0.196,-0.1971,-0.1923,-0.1901,-0.1889,-0.1695,-0.1617,-0.1215,-0.1066,-0.0946,-0.1074,-0.1038,-0.1055,-0.1076,-0.1122,-0.1136,-0.0817,-0.0819,-0.082,-0.0822,-0.0823,0,-0.2188,-0.219,-0.2161,-0.2114,-0.1985,-0.1921,-0.1863,-0.1791,-0.1724,-0.1638,-0.1515,-0.1234,-0.1034,-0.0941,-0.0723,-0.0672,-0.0694,-0.0613,-0.0681,-0.0718,-0.0751,-0.0788,-0.0389,-0.0388,-0.0387,-0.0385,0,0,-0.2208,-0.2182,-0.2135,-0.195,-0.1834,-0.1639,-0.1577,-0.1504,-0.145,-0.1222,-0.1044,-0.0965,-0.0961,-0.0711,-0.0627,-0.0491,-0.0599,-0.0428,-0.0779,-0.0901,-0.0933,-0.0994,-0.109,0,0,0,0,0]},{"header":{"parameterUnit":"m.s-1","parameterCategory":2,"la1":30.2991,"la2":30.254,"lo1":-89.0895,"lo2":-89.0444,"dy":0.0017,"dx":0.0017,"nx":28,"ny":28,"refTime":"2024-07-17T21:00:00:Z","depth":"2","parameterNumber":3,"parameterNumberName":"V-component_of_CURRENTS"},"data":[0,0,0,0,0,0,0,0,0,0,0,0,0,0,0,0,0,0,0,0,0,0,0,0,0,0,0,0,0,0,0,0,0,0,0,0,0,0,0,0,0,0,0,0,0,0,0,0,0,0,0,0,0,0,0,0,0,0,-0.0074,-0.0073,0,0.0025,0.0027,0.0028,0.0113,0.0114,0.0114,0.0115,0.0338,0.0344,0.0349,0,0,0,0,0,0,0,0,0,0,0,0,0,-0.0151,-0.015,-0.0074,-0.0073,-0.0072,0.0025,0.0027,0.0028,0.0113,0.0114,0.0114,0.0115,0.0337,0.0343,0.0349,0,0,0,0,0,0,0,0,0,0,0,0,0,-0.0089,-0.015,-0.0074,-0.002,-0.0015,0.0025,0.0027,0.0029,0.0113,0.0114,0.0115,0.0116,0.0335,0.0342,0.035,0.038,0,0,0.0375,0.0378,0,0,0,0,0,0,0,0,-0.0092,-0.0085,-0.0029,-0.0024,-0.0018,0.0055,0.0081,0.0151,0.0112,0.0068,0.0115,0.0116,0.0252,0.0267,0.0286,0.039,0.04,0.0375,0.038,0.0384,0.0386,0,0,0,0,0,0,0,-0.0097,-0.0089,-0.0031,-0.0028,-0.0021,0.0012,0.0022,0.0095,0.0158,0.0072,0.0077,0.0083,0.0257,0.0278,0.0293,0.0403,0.0375,0.0382,0.0387,0.039,0.0651,0.0653,0,0,0,0,0,0,-0.0118,-0.0093,-0.0035,-0.0029,-0.0057,0.0012,0.0023,0.0033,0.0155,0.0172,0.0082,0.0086,0.0264,0.0283,0.0301,0.0379,0.0384,0.0391,0.0396,0.0649,0.0652,0.0654,0,0,0,0,0,0,-0.012,-0.0114,-0.0039,-0.0061,-0.005,0.0012,0.0022,0.0035,0.0061,0.0161,0.0181,0.0096,0.0266,0.029,0.0373,0.0388,0.0395,0.0402,0.0647,0.065,0.0653,0.0514,0,0,0,0,0,0,-0.0123,-0.0115,-0.0118,-0.0063,-0.005,-0.0022,0.0022,0.0036,0.0061,0.0068,0.0179,0.0201,0.0268,0.0361,0.0381,0.0399,0.0408,0.0644,0.0648,0.0652,0.0516,0.0512,0.0509,0,0,0,0,0,-0.0126,-0.0132,-0.0118,-0.0111,-0.0054,-0.0023,-0.0013,0.0036,0.006,0.0066,0.0148,0.0198,0.0402,0.0368,0.0392,0.0412,0.0642,0.0647,0.0652,0.0517,0.0513,0.0509,0,0,0,0,0,0,-0.0162,-0.0123,-0.0106,-0.0099,-0.0069,-0.001,-0.0002,0.003,0.0096,0.0107,0.0207,0.0234,0.0328,0.0392,0.0352,0.0508,0.0538,0.0548,0.0428,0.0425,0.0421,0.0339,0.0415,0,0,0,0,0,-0.0176,-0.0172,-0.0129,-0.0125,-0.0113,-0.006,-0.0042,-0.0013,0.005,0.0079,0.0158,0.0261,0.0366,0.0407,0.0509,0.0567,0.0614,0.0608,0.0604,0.06,0.0556,0.066,0.0659,0.067,0.067,0.067,0,0,-0.0189,-0.0169,-0.0166,-0.0134,-0.0104,-0.0092,-0.0045,-0.0027,-0.0012,0.0095,0.0149,0.0253,0.0386,0.0467,0.0515,0.0516,0.0625,0.0606,0.0601,0.0558,0.0664,0.0663,0.0661,0.0673,0.0672,0.0672,0,0,-0.022,-0.0197,-0.0206,-0.0186,-0.0157,-0.0123,-0.0123,-0.0067,-0.0037,0.0022,0.0123,0.0203,0.0358,0.043,0.0497,0.053,0.0615,0.0604,0.0495,0.0597,0.0595,0.0594,0.0638,0.0642,0.0584,0.0584,0.0584,0,-0.0239,-0.0243,-0.0204,-0.0207,-0.0198,-0.0142,-0.0149,-0.0109,-0.0034,-0.0003,0.0028,0.0244,0.0329,0.0433,0.0436,0.0512,0.0579,0.0488,0.0584,0.0584,0.0585,0.0632,0.0637,0.0578,0.0579,0.0579,0.058,0,-0.0272,-0.0277,-0.0281,-0.0265,-0.0248,-0.0249,-0.0197,-0.0172,-0.0124,-0.0068,0.0038,0.0148,0.0272,0.0325,0.0377,0.0447,0.0495,0.0574,0.0571,0.0574,0.0625,0.0633,0.0569,0.0571,0.0573,0.0575,0,0,-0.0312,-0.0308,-0.0311,-0.0326,-0.0285,-0.0282,-0.0254,-0.0211,-0.0182,-0.0104,-0.0043,0.0076,0.0139,0.0215,0.031,0.0352,0.0393,0.0439,0.0447,0.0435,0.0592,0.0606,0.0617,0.0508,0.0509,0.051,0.0617,0,-0.0354,-0.0393,-0.0366,-0.0395,-0.0412,-0.0357,-0.0338,-0.0288,-0.021,-0.013,-0.003,0.0083,0.0107,0.0175,0.0218,0.0401,0.0413,0.0354,0.063,0.0635,0.061,0.0626,0.0561,0.065,0.0625,0.0627,0.0628,0,-0.0395,-0.0421,-0.0466,-0.0479,-0.0479,-0.0485,-0.0444,-0.0424,-0.0298,-0.0227,-0.0122,0.002,0.0115,0.0142,0.0335,0.0315,0.0401,0.0495,0.0505,0.056,0.0665,0.0654,0.0667,0.0643,0.0641,0.064,0.0639,0,-0.0462,-0.0491,-0.054,-0.0542,-0.0536,-0.0551,-0.0555,-0.0464,-0.0424,-0.0285,-0.0188,-0.0035,0.0083,0.0214,0.0398,0.0396,0.0611,0.0663,0.0727,0.0729,0.0741,0.0741,0.0736,0.0735,0.0735,0.0735,0.0735,0,-0.0521,-0.0559,-0.0588,-0.0615,-0.0675,-0.0649,-0.0666,-0.0627,-0.0517,-0.0428,-0.0259,-0.0131,0.0113,0.03,0.0411,0.0599,0.0634,0.0682,0.076,0.0693,0.0689,0.0744,0.0743,0.0739,0.0738,0.0737,0.0737,0,-0.0583,-0.0595,-0.0658,-0.0692,-0.0711,-0.0769,-0.0768,-0.0746,-0.0643,-0.0506,-0.0445,-0.0167,0.0078,0.0298,0.0553,0.0638,0.0803,0.0838,0.0707,0.0766,0.0835,0.0827,0.0931,0.0933,0.0934,0.0935,0.0936,0,-0.0621,-0.066,-0.0732,-0.0775,-0.0802,-0.087,-0.0889,-0.0836,-0.0771,-0.0522,-0.0433,-0.0148,0.0068,0.0421,0.0627,0.0834,0.0837,0.0876,0.0836,0.0791,0.0857,0.0847,0.0838,0.0796,0.0796,0.0796,0.0795,0,-0.0697,-0.0718,-0.0772,-0.0853,-0.0908,-0.0952,-0.0964,-0.0918,-0.0784,-0.066,-0.0435,-0.0249,0.0134,0.0396,0.0683,0.0775,0.0848,0.0876,0.092,0.0752,0.0673,0.0734,0.0728,0.0793,0.0793,0.0793,0.0793,0.0794,-0.0751,-0.0805,-0.086,-0.0934,-0.0984,-0.0992,-0.0999,-0.0932,-0.0853,-0.0598,-0.047,-0.0168,0.0109,0.0536,0.0663,0.081,0.0851,0.0879,0.0877,0.0875,0.0836,0.0763,0.0889,0.089,0.0891,0.0891,0.0892,0,-0.0814,-0.0853,-0.0926,-0.1,-0.104,-0.1043,-0.0996,-0.0948,-0.083,-0.0591,-0.0415,-0.0135,0.0166,0.0455,0.0688,0.0805,0.0751,0.0795,0.0722,0.0726,0.0729,0.0678,0.0692,0.0691,0.0691,0.069,0,0,-0.0846,-0.0924,-0.0953,-0.103,-0.1054,-0.1054,-0.101,-0.0902,-0.0724,-0.0538,-0.031,-0.0051,0.0298,0.0402,0.053,0.0643,0.063,0.061,0.0764,0.0665,0.0665,0.0781,0.0708,0,0,0,0,0]}],[{"header":{"parameterUnit":"m.s-1","parameterCategory":2,"la1":30.2991,"la2":30.254,"lo1":-89.0895,"lo2":-89.0444,"dy":0.0017,"dx":0.0017,"nx":28,"ny":28,"refTime":"2024-07-17T21:00:00:Z","depth":"4","parameterNumber":2,"parameterNumberName":"U-component_of_CURRENTS"},"data":[0,0,0,0,0,0,0,0,0,0,0,0,0,0,0,0,0,0,0,0,0,0,0,0,0,0,0,0,0,0,0,0,0,0,0,0,0,0,0,0,0,0,0,0,0,0,0,0,0,0,0,0,0,0,0,0,0,0,-0.1327,-0.1327,0,-0.1378,-0.1378,-0.1379,-0.14,-0.14,-0.14,-0.14,-0.1463,-0.1465,-0.1466,0,0,0,0,0,0,0,0,0,0,0,0,0,-0.1269,-0.127,-0.1327,-0.1328,-0.1328,-0.1378,-0.1378,-0.1379,-0.14,-0.14,-0.14,-0.14,-0.1463,-0.1464,-0.1466,0,0,0,0,0,0,0,0,0,0,0,0,0,-0.1303,-0.127,-0.1327,-0.1347,-0.1349,-0.1378,-0.1378,-0.1379,-0.14,-0.14,-0.14,-0.1401,-0.1462,-0.1464,-0.1467,-0.1478,0,0,-0.1474,-0.1475,0,0,0,0,0,0,0,0,-0.1301,-0.1304,-0.1343,-0.1345,-0.1348,-0.1385,-0.1381,-0.1414,-0.14,-0.1378,-0.14,-0.1401,-0.1439,-0.1444,-0.145,-0.1481,-0.1484,-0.1474,-0.1476,-0.1477,-0.1477,0,0,0,0,0,0,0,-0.1298,-0.1302,-0.1345,-0.1344,-0.1347,-0.1361,-0.1365,-0.1387,-0.1406,-0.138,-0.1383,-0.1392,-0.1441,-0.1447,-0.1451,-0.1485,-0.1474,-0.1476,-0.1478,-0.1479,-0.1573,-0.1574,0,0,0,0,0,0,-0.1295,-0.13,-0.1343,-0.1347,-0.1327,-0.1362,-0.1367,-0.1371,-0.1406,-0.1412,-0.1391,-0.1393,-0.1443,-0.1449,-0.1454,-0.152,-0.1477,-0.1479,-0.148,-0.1572,-0.1573,-0.1574,0,0,0,0,0,0,-0.1294,-0.1298,-0.1341,-0.1327,-0.1333,-0.1363,-0.1367,-0.1372,-0.1399,-0.1414,-0.142,-0.1417,-0.1443,-0.145,-0.1494,-0.1521,-0.148,-0.1482,-0.157,-0.1572,-0.1573,-0.1621,0,0,0,0,0,0,-0.1292,-0.1297,-0.131,-0.1326,-0.1334,-0.137,-0.1368,-0.1373,-0.1405,-0.1407,-0.1438,-0.1442,-0.1444,-0.149,-0.1496,-0.1523,-0.1484,-0.1569,-0.1571,-0.1573,-0.1618,-0.1624,-0.1629,0,0,0,0,0,-0.1289,-0.1301,-0.131,-0.1316,-0.1347,-0.1371,-0.1376,-0.1396,-0.1406,-0.1421,-0.1446,-0.1442,-0.1507,-0.1493,-0.15,-0.1528,-0.1568,-0.157,-0.1573,-0.1615,-0.1622,-0.1629,0,0,0,0,0,0,-0.1285,-0.1305,-0.1315,-0.1334,-0.1358,-0.1375,-0.1398,-0.141,-0.1441,-0.1452,-0.1461,-0.1468,-0.1515,-0.1515,-0.15,-0.156,-0.1535,-0.1539,-0.1565,-0.1572,-0.1577,-0.1573,-0.1486,0,0,0,0,0,-0.1289,-0.1305,-0.1326,-0.1345,-0.136,-0.1384,-0.1402,-0.1415,-0.144,-0.1455,-0.1478,-0.1503,-0.1526,-0.1545,-0.1564,-0.1602,-0.1593,-0.1622,-0.1628,-0.1633,-0.1633,-0.1653,-0.166,-0.1582,-0.1582,-0.1582,0,0,-0.1298,-0.1309,-0.1322,-0.1347,-0.137,-0.1393,-0.1396,-0.1429,-0.1455,-0.1458,-0.1511,-0.1527,-0.1541,-0.1581,-0.1601,-0.1588,-0.1648,-0.1636,-0.164,-0.1638,-0.1656,-0.1663,-0.167,-0.1584,-0.1583,-0.1583,0,0,-0.1312,-0.1332,-0.1348,-0.1367,-0.1403,-0.1417,-0.1432,-0.1465,-0.149,-0.1534,-0.1544,-0.1581,-0.1616,-0.1635,-0.1645,-0.1695,-0.1677,-0.1699,-0.1727,-0.1746,-0.1753,-0.1758,-0.1746,-0.175,-0.1702,-0.1702,-0.1702,0,-0.1324,-0.1341,-0.1359,-0.1378,-0.14,-0.143,-0.1455,-0.1484,-0.1529,-0.1553,-0.1557,-0.1622,-0.1641,-0.1686,-0.1702,-0.1709,-0.1702,-0.1701,-0.1753,-0.1759,-0.1764,-0.175,-0.1754,-0.1705,-0.1704,-0.1704,-0.1704,0,-0.1338,-0.1365,-0.1381,-0.1412,-0.1437,-0.1467,-0.1503,-0.154,-0.1573,-0.1598,-0.1657,-0.1685,-0.1718,-0.1734,-0.1735,-0.1783,-0.1759,-0.1758,-0.1735,-0.1774,-0.1757,-0.1761,-0.1708,-0.1707,-0.1707,-0.1706,0,0,-0.1327,-0.1381,-0.1388,-0.1407,-0.1458,-0.1473,-0.153,-0.1578,-0.1607,-0.1663,-0.1701,-0.1758,-0.1773,-0.1786,-0.1799,-0.1821,-0.1853,-0.1806,-0.1806,-0.1792,-0.1873,-0.1702,-0.1689,-0.1861,-0.1862,-0.1863,-0.1842,0,-0.1338,-0.1371,-0.1401,-0.1444,-0.1465,-0.1511,-0.155,-0.1598,-0.1642,-0.1687,-0.1737,-0.1775,-0.1793,-0.1808,-0.1841,-0.1848,-0.1866,-0.1857,-0.1839,-0.1838,-0.168,-0.1689,-0.1867,-0.1845,-0.1845,-0.1846,-0.1846,0,-0.1335,-0.1357,-0.14,-0.1449,-0.1463,-0.1493,-0.1552,-0.1592,-0.1664,-0.1696,-0.1754,-0.1787,-0.1843,-0.1844,-0.189,-0.1881,-0.1883,-0.1886,-0.1885,-0.1711,-0.1673,-0.1801,-0.1852,-0.1852,-0.1851,-0.1851,-0.185,0,-0.1296,-0.1354,-0.1387,-0.1405,-0.1466,-0.1497,-0.1531,-0.1597,-0.1623,-0.1703,-0.1717,-0.1798,-0.1822,-0.186,-0.1874,-0.1887,-0.1896,-0.1913,-0.1762,-0.1749,-0.189,-0.1885,-0.1941,-0.1941,-0.1941,-0.1941,-0.1941,0,-0.1275,-0.1302,-0.1372,-0.1386,-0.1415,-0.1467,-0.1502,-0.155,-0.1605,-0.1619,-0.1714,-0.1724,-0.1828,-0.1847,-0.187,-0.1802,-0.1894,-0.1755,-0.1731,-0.1908,-0.1905,-0.1892,-0.1886,-0.194,-0.194,-0.1941,-0.1941,0,-0.122,-0.1275,-0.1312,-0.138,-0.14,-0.1417,-0.1468,-0.148,-0.1545,-0.1564,-0.1586,-0.1673,-0.169,-0.1753,-0.1798,-0.1757,-0.1737,-0.1694,-0.1852,-0.184,-0.1583,-0.158,-0.1525,-0.1519,-0.1514,-0.151,-0.1506,0,-0.119,-0.1208,-0.1289,-0.1305,-0.1338,-0.1369,-0.138,-0.1445,-0.145,-0.1508,-0.1499,-0.1546,-0.1591,-0.1509,-0.1601,-0.1603,-0.1597,-0.1567,-0.1603,-0.1556,-0.1541,-0.1546,-0.1551,-0.1497,-0.1496,-0.1495,-0.1493,0,-0.1127,-0.1174,-0.1201,-0.1233,-0.1256,-0.1266,-0.1287,-0.1276,-0.1332,-0.14,-0.136,-0.1363,-0.1366,-0.1407,-0.14,-0.1416,-0.1578,-0.1512,-0.1524,-0.1558,-0.1522,-0.1513,-0.1523,-0.1475,-0.1478,-0.1479,-0.148,0,-0.1078,-0.1081,-0.1126,-0.1136,-0.1163,-0.1143,-0.1174,-0.1154,-0.1162,-0.1224,-0.1207,-0.1261,-0.1337,-0.1305,-0.1309,-0.1292,-0.1294,-0.1262,-0.1288,-0.1309,-0.1249,-0.1172,-0.0984,0,0,0,0,0,-0.1012,-0.1003,-0.1016,-0.102,-0.1041,-0.105,-0.1093,-0.1125,-0.1178,-0.1103,-0.1145,-0.114,-0.1123,-0.1166,-0.111,-0.1237,-0.1317,-0.1165,-0.1299,-0.1374,-0.1395,-0.1345,0,0,0,0,0,0,-0.097,-0.0983,-0.0981,-0.091,-0.0886,-0.0888,-0.0912,-0.096,-0.0926,-0.0995,-0.1002,-0.1041,-0.1066,-0.113,-0.1076,-0.1087,-0.1139,-0.1203,-0.1198,-0.1362,-0.1381,-0.1398,-0.1354,0,0,0,0,0]},{"header":{"parameterUnit":"m.s-1","parameterCategory":2,"la1":30.2991,"la2":30.254,"lo1":-89.0895,"lo2":-89.0444,"dy":0.0017,"dx":0.0017,"nx":28,"ny":28,"refTime":"2024-07-17T21:00:00:Z","depth":"4","parameterNumber":3,"parameterNumberName":"V-component_of_CURRENTS"},"data":[0,0,0,0,0,0,0,0,0,0,0,0,0,0,0,0,0,0,0,0,0,0,0,0,0,0,0,0,0,0,0,0,0,0,0,0,0,0,0,0,0,0,0,0,0,0,0,0,0,0,0,0,0,0,0,0,0,0,-0.0103,-0.0103,0,-0.0077,-0.0077,-0.0077,-0.0033,-0.0032,-0.0031,-0.003,0.0047,0.0048,0.005,0,0,0,0,0,0,0,0,0,0,0,0,0,-0.0118,-0.0118,-0.0103,-0.0103,-0.0103,-0.0078,-0.0077,-0.0077,-0.0033,-0.0032,-0.0031,-0.003,0.0047,0.0048,0.005,0,0,0,0,0,0,0,0,0,0,0,0,0,-0.0103,-0.0118,-0.0103,-0.0078,-0.0076,-0.0078,-0.0077,-0.0077,-0.0033,-0.0032,-0.0031,-0.003,0.0046,0.0048,0.005,0.004,0,0,0.0056,0.0057,0,0,0,0,0,0,0,0,-0.0104,-0.0103,-0.0082,-0.008,-0.0077,-0.0058,-0.0054,-0.0035,-0.0033,-0.0049,-0.003,-0.0029,0.0016,0.002,0.0023,0.0043,0.0047,0.0056,0.0058,0.0059,0.0059,0,0,0,0,0,0,0,-0.0105,-0.0104,-0.0092,-0.0082,-0.0079,-0.007,-0.0066,-0.005,-0.0022,-0.0047,-0.0044,-0.0043,0.0018,0.0021,0.0025,0.0048,0.0056,0.0058,0.0059,0.006,0.0125,0.0126,0,0,0,0,0,0,-0.0111,-0.0105,-0.0093,-0.0092,-0.0089,-0.007,-0.0066,-0.0065,-0.0023,-0.0016,-0.0044,-0.0041,0.0017,0.0023,0.0028,0.0046,0.0059,0.006,0.0062,0.0125,0.0125,0.0126,0,0,0,0,0,0,-0.0111,-0.011,-0.0094,-0.0098,-0.0095,-0.0071,-0.007,-0.0065,-0.0059,-0.0021,-0.0013,-0.0042,0.0018,0.0025,0.0048,0.0048,0.0061,0.0063,0.0124,0.0125,0.0126,0.0064,0,0,0,0,0,0,-0.0112,-0.0111,-0.0114,-0.0099,-0.0095,-0.0098,-0.0071,-0.0065,-0.006,-0.0056,-0.0017,-0.0009,0.0019,0.0045,0.005,0.0051,0.0065,0.0124,0.0125,0.0125,0.0066,0.0063,0.006,0,0,0,0,0,-0.0113,-0.0123,-0.0114,-0.0113,-0.01,-0.0099,-0.0096,-0.0075,-0.0061,-0.0064,-0.0032,-0.001,0.0055,0.0046,0.0052,0.0054,0.0123,0.0124,0.0125,0.0067,0.0063,0.006,0,0,0,0,0,0,-0.013,-0.012,-0.0109,-0.0115,-0.0108,-0.0091,-0.0095,-0.0081,-0.0061,-0.0055,-0.0014,-0.0004,0.002,0.0046,0.0035,0.008,0.0097,0.0099,0.005,0.0047,0.0045,0.0031,0.0067,0,0,0,0,0,-0.0138,-0.0143,-0.0129,-0.0135,-0.0134,-0.0116,-0.0114,-0.0101,-0.0081,-0.0071,-0.0043,-0.0006,0.0028,0.0043,0.0074,0.0086,0.0115,0.0098,0.0095,0.0092,0.0088,0.012,0.0119,0.013,0.013,0.013,0,0,-0.0147,-0.0142,-0.0144,-0.0139,-0.0133,-0.0135,-0.0112,-0.0114,-0.0109,-0.0066,-0.0052,-0.0018,0.003,0.0052,0.0066,0.0073,0.0108,0.0094,0.0091,0.0088,0.0121,0.012,0.0119,0.013,0.013,0.013,0,0,-0.0172,-0.0164,-0.0177,-0.0174,-0.0168,-0.0157,-0.0159,-0.0144,-0.013,-0.0117,-0.0076,-0.0047,-0.0004,0.003,0.0055,0.0055,0.0093,0.0073,0.0044,0.0075,0.0074,0.0073,0.0116,0.012,0.007,0.007,0.007,0,-0.0184,-0.0195,-0.0182,-0.0192,-0.0192,-0.0168,-0.018,-0.0165,-0.0142,-0.0139,-0.0116,-0.0056,-0.0014,0.0015,0.0027,0.0046,0.0076,0.0046,0.0069,0.0069,0.0069,0.0113,0.0118,0.0067,0.0068,0.0068,0.0068,0,-0.0215,-0.0224,-0.0233,-0.0234,-0.0233,-0.0242,-0.022,-0.0219,-0.0198,-0.018,-0.0154,-0.01,-0.0067,-0.004,-0.0002,0.0023,0.0048,0.0059,0.0069,0.0064,0.0112,0.0118,0.0063,0.0064,0.0065,0.0066,0,0,-0.0244,-0.0254,-0.0258,-0.0269,-0.0257,-0.0264,-0.0261,-0.0257,-0.0271,-0.0227,-0.0232,-0.0158,-0.0136,-0.0105,-0.0058,-0.002,0.0019,0.0021,0.0024,0.0049,0.0099,0.0115,0.0124,0.0032,0.0032,0.0033,0.0134,0,-0.0273,-0.0306,-0.0298,-0.0325,-0.034,-0.0322,-0.0329,-0.032,-0.0305,-0.0304,-0.024,-0.0224,-0.0157,-0.0149,-0.0098,-0.0007,0.0031,-0.0008,0.0112,0.0116,0.0119,0.013,0.0034,0.0138,0.014,0.0141,0.0141,0,-0.0306,-0.0324,-0.0359,-0.0383,-0.039,-0.0402,-0.0424,-0.0424,-0.0409,-0.0399,-0.0367,-0.0324,-0.025,-0.0206,-0.0059,-0.0086,-0.0,0.007,0.0075,0.0114,0.0143,0.0146,0.0153,0.0152,0.0151,0.015,0.015,0,-0.0339,-0.0367,-0.0399,-0.0404,-0.0424,-0.0445,-0.0456,-0.0459,-0.0474,-0.0462,-0.0474,-0.0388,-0.0347,-0.0227,-0.0055,-0.0065,0.0111,0.0108,0.0201,0.0204,0.0184,0.0184,0.0191,0.0191,0.0191,0.019,0.019,0,-0.0371,-0.04,-0.0423,-0.0442,-0.0494,-0.0489,-0.0542,-0.0549,-0.056,-0.0577,-0.0524,-0.0511,-0.0352,-0.0229,-0.0078,0.0101,0.0096,0.02,0.0228,0.0159,0.0155,0.0189,0.0188,0.0194,0.0193,0.0193,0.0192,0,-0.0402,-0.0415,-0.0459,-0.0494,-0.0511,-0.0548,-0.0597,-0.0635,-0.0642,-0.0663,-0.0662,-0.059,-0.0419,-0.0237,-0.0028,0.0061,0.0232,0.0292,0.0226,0.0248,0.0304,0.0299,0.0376,0.0378,0.0379,0.038,0.0381,0,-0.0422,-0.0445,-0.0499,-0.0537,-0.0558,-0.061,-0.0651,-0.0671,-0.0698,-0.0697,-0.0698,-0.0579,-0.0493,-0.0174,0.0006,0.0282,0.0313,0.0362,0.0311,0.0302,0.0322,0.0315,0.0308,0.0383,0.0383,0.0383,0.0383,0,-0.0458,-0.0477,-0.0513,-0.0585,-0.0637,-0.0692,-0.0739,-0.0761,-0.0771,-0.0783,-0.0711,-0.0582,-0.0391,-0.0159,0.0064,0.0255,0.0305,0.0374,0.0371,0.0324,0.0311,0.0328,0.0319,0.0387,0.0387,0.0386,0.0386,0,-0.0487,-0.0523,-0.057,-0.063,-0.07,-0.0749,-0.0771,-0.0772,-0.0786,-0.0762,-0.0727,-0.0543,-0.0438,-0.0171,0.004,0.0232,0.0248,0.0246,0.025,0.0248,0.0179,0.0141,0.0191,0,0,0,0,0,-0.0511,-0.0551,-0.0613,-0.0682,-0.0749,-0.078,-0.0821,-0.0827,-0.0825,-0.0769,-0.0745,-0.0553,-0.0284,-0.0175,0.0027,0.0048,0.0273,0.0277,0.0271,0.041,0.0405,0.0347,0,0,0,0,0,0,-0.0534,-0.0591,-0.0614,-0.0704,-0.0754,-0.0823,-0.0843,-0.084,-0.0791,-0.0764,-0.0589,-0.055,-0.0245,-0.037,0.0023,0.0073,0.0078,0.0409,0.0411,0.0412,0.0408,0.0404,0.0343,0,0,0,0,0]}]]